Temperature
18 18 18 18 18 18 17 17 17 17 17 17 17 17 18 18 18 18 18 18 18 18 18 18 18 18 18 18 18 18 18 18 18 18 18 18 18 17 17 17 17 17 17
18 18 18 18 17 17 17 17 17 17 17 17 17 17 17 17 17 18 18 18 18 18 18 18 18 18 18 18 18 18 18 18 18 18 18 18 18 18 17 17 17 17 17
18 18 18 18 17 17 17 17 17 17 17 17 17 17 17 17 17 17 17 18 18 18 18 17 17 18 18 18 18 18 18 18 18 18 17 17 17 17 17 17 17 17 17
17 17 17 17 17 17 17 17 17 17 17 16 16 16 16 16 17 17 17 17 17 17 17 17 17 17 17 17 18 18 18 18 18 17 17 17 17 17 17 17 17 17 17
17 17 17 17 17 17 16 16 16 16 16 16 16 16 16 16 17 17 17 17 17 17 17 17 17 17 17 17 17 18 18 18 18 18 17 17 17 17 17 17 17 17 17
17 16 16 16 16 16 16 16 16 16 16 16 16 16 16 16 16 16 17 17 17 17 17 17 17 17 17 17 17 17 17 18 18 17 17 17 17 17 17 17 17 17 16
16 16 16 16 16 16 16 16 16 16 15 15 15 15 15 16 16 17 17 17 17 17 17 17 17 17 17 17 17 17 17 17 17 17 17 17 17 17 17 17 16 16 16
15 15 15 15 15 15 15 15 15 15 15 15 14 14 15 15 16 17 17 17 17 17 17 17 17 17 17 17 17 17 17 17 17 17 17 17 17 17 17 16 16 16 16
15 15 15 15 15 15 15 15 15 14 14 14 14 14 14 15 16 16 17 17 17 17 17 17 17 17 17 17 17 17 17 17 17 17 17 17 17 17 16 16 16 16 16
15 15 15 14 14 14 14 14 14 14 14 14 14 14 14 14 14 15 16 17 17 17 17 17 17 17 17 17 17 17 17 17 17 17 17 17 17 17 16 16 16 16 16
14 14 14 14 14 14 14 14 14 14 14 14 14 14 14 14 14 14 15 16 16 17 17 17 17 17 17 17 17 17 17 17 17 17 17 17 16 16 16 16 16 16 16
13 13 13 13 13 13 13 13 13 13 14 14 14 14 13 13 14 14 14 15 16 16 17 17 17 17 17 17 17 17 17 17 17 16 16 16 16 16 16 16 16 16 16
12 13 13 13 13 13 13 13 13 13 13 13 13 13 13 13 13 13 14 14 15 16 16 17 17 17 17 17 17 17 17 17 16 16 16 16 16 16 16 16 16 16 16
12 12 12 12 12 12 12 12 12 12 12 13 13 13 13 13 13 13 13 14 14 15 16 16 17 17 17 17 17 17 17 16 16 16 16 16 16 16 16 16 16 16 16
11 11 11 11 11 11 11 12 12 12 12 12 12 12 13 13 13 13 13 13 13 14 15 16 16 16 16 16 17 17 16 16 16 16 16 16 16 16 17 17 17 16 16
11 10 11 11 11 11 11 11 11 11 11 11 12 12 12 12 12 12 13 13 13 13 14 15 15 16 16 16 16 16 16 16 16 16 16 16 16 16 17 17 17 17 17
10 10 10 10 10 10 10 10 11 11 11 11 11 11 12 12 12 12 12 12 13 13 13 14 15 15 15 16 16 16 16 16 16 16 16 16 16 16 16 16 17 17 16
10 10 10 10 10 10 10 10 10 10 10 10 11 11 11 11 11 11 12 12 12 12 13 13 14 14 15 15 15 15 15 15 15 15 15 16 16 16 16 16 16 16 16
9 9 9 9 9 9 9 9 9 10 10 10 10 10 11 11 11 11 11 11 12 12 12 12 13 13 14 14 15 14 14 15 15 15 15 15 15 16 16 16 16 16 16
9 8 8 8 8 8 9 9 9 9 9 10 10 10 10 10 11 11 11 11 11 11 12 12 12 12 13 13 14 14 14 14 14 14 14 14 15 15 15 16 16 16 16
8 8 8 8 8 8 8 8 9 9 9 9 9 10 10 10 10 10 10 11 11 11 11 11 12 12 12 12 13 13 13 13 13 14 14 14 14 14 15 15 15 15 15
8 8 8 8 8 8 8 8 8 8 8 8 8 9 9 10 10 10 10 10 10 11 11 11 11 12 12 12 12 12 13 13 12 13 13 13 13 13 14 14 14 14 15
8 8 8 8 8 8 8 7 7 7 7 8 8 8 9 9 9 10 10 10 10 10 10 11 11 11 12 12 12 12 12 13 13 14 13 13 12 13 13 13 13 14 14
8 8 8 8 8 8 8 7 7 7 7 7 8 8 8 9 9 9 10 10 10 10 10 10 11 11 11 11 12 12 12 12 12 12 12 12 12 12 12 13 13 13 13
8 8 8 8 8 8 8 7 7 7 7 7 7 8 8 8 9 9 9 9 10 10 10 10 10 10 11 11 11 11 11 11 11 11 11 12 12 12 12 12 12 12 12
8 8 8 8 7 7 7 7 7 7 7 7 7 7 8 8 8 8 9 9 9 10 10 10 10 10 10 10 11 11 11 11 11 11 11 11 12 11 11 11 11 11 12
Wind_Speed
4 3 3 3 5 7 6 6 6 7 8 10 12 12 10 13 15 15 14 16 17 22 27 28 27 27 27 27 27 26 25 24 24 23 23 22 21 21 20 19 19 18 18
3 2 2 2 3 5 6 5 6 7 7 7 10 11 11 12 14 16 15 15 18 22 26 28 29 28 27 27 27 27 27 26 25 25 24 24 23 22 22 21 20 20 19
3 2 1 2 2 4 5 4 5 4 6 8 9 11 8 9 11 13 15 15 16 21 25 29 30 29 28 27 28 27 27 27 27 27 26 25 25 24 23 23 22 22 21
4 2 1 2 3 4 3 3 4 4 5 6 6 8 8 7 10 11 13 14 15 17 22 29 30 29 28 28 29 28 28 28 28 28 27 27 26 25 25 24 24 23 23
3 1 2 2 3 2 3 4 3 3 4 5 6 6 7 8 8 10 10 12 15 17 17 22 28 28 29 29 29 28 28 28 28 28 28 27 27 27 26 26 25 25 24
3 2 2 2 2 2 3 3 4 4 4 5 6 7 6 7 7 8 10 9 12 16 18 19 20 24 29 29 28 28 28 28 29 28 28 28 27 27 27 27 26 26 26
2 2 2 2 2 2 3 4 3 4 4 3 2 3 4 7 8 8 8 8 10 12 15 17 17 17 18 26 28 28 27 27 28 28 28 28 28 28 28 28 27 27 27
3 3 3 3 3 2 3 3 2 2 3 2 2 2 3 3 5 8 7 8 10 9 11 14 14 15 15 16 20 26 26 26 26 27 27 27 27 27 28 28 28 27 27
5 4 4 4 3 3 3 3 2 2 3 2 2 3 2 3 3 3 6 7 8 8 8 8 10 14 16 15 15 20 25 25 25 25 25 26 27 27 27 28 28 27 27
5 5 5 5 4 4 4 4 3 2 2 3 2 3 3 2 2 3 3 4 6 7 8 8 9 10 14 14 16 18 22 23 24 23 23 23 24 25 26 26 27 27 27
5 5 4 5 5 5 5 5 3 3 3 3 3 2 2 2 3 2 3 3 2 4 5 6 6 7 10 12 13 16 19 20 21 20 20 20 21 22 23 25 25 26 26
4 5 4 4 5 5 6 6 5 5 4 4 3 3 2 2 2 2 3 3 3 3 3 4 5 6 7 11 14 16 17 18 17 17 17 17 18 19 21 22 23 24 25
4 5 4 4 4 5 6 6 5 6 5 5 4 4 3 3 2 2 2 2 3 2 1 2 3 5 6 8 10 14 14 15 15 14 14 13 14 15 17 19 21 22 23
5 6 5 4 5 5 6 6 5 6 5 6 6 5 3 4 3 2 2 1 2 2 1 2 0 2 4 7 10 13 10 13 13 12 10 10 11 12 14 16 18 19 20
5 6 5 5 6 6 6 6 6 7 6 6 6 6 4 4 4 3 3 3 2 2 3 2 0 1 2 5 10 11 10 12 11 10 8 7 8 9 11 13 15 17 18
6 6 6 6 6 6 7 6 6 7 7 7 6 6 5 4 4 4 4 3 3 3 3 2 1 1 2 4 8 9 10 12 10 9 8 7 6 7 7 9 10 12 13
7 7 7 7 7 7 7 6 7 8 9 8 8 8 8 6 5 5 4 4 4 4 4 3 1 1 2 5 6 7 9 8 7 8 7 6 5 5 5 6 7 9 10
7 7 7 7 8 8 8 8 8 8 9 9 9 9 9 7 7 6 5 6 5 5 4 4 3 2 2 6 7 7 6 7 7 8 8 7 6 5 4 4 4 5 7
8 8 7 8 8 9 9 9 9 9 9 10 10 10 10 8 8 6 6 6 5 5 4 4 3 3 2 5 6 5 6 5 6 8 8 8 8 7 6 4 4 4 5
8 8 8 8 9 9 9 9 9 9 9 10 10 10 10 10 10 9 7 7 6 5 4 4 4 4 4 5 6 6 5 3 4 5 6 7 8 9 8 7 5 4 4
9 8 8 9 9 9 10 10 9 10 9 9 9 9 10 12 13 11 8 8 7 6 5 5 5 4 5 6 6 5 6 5 3 3 4 3 4 5 6 7 6 5 6
9 9 9 9 10 10 13 14 11 8 7 8 9 8 9 11 13 15 15 14 12 9 8 6 5 6 7 7 6 7 7 6 4 4 4 3 2 3 3 5 6 6 7
9 10 10 9 10 12 16 16 16 10 8 8 9 8 9 10 10 8 12 15 15 15 14 9 7 7 7 8 9 9 8 6 4 8 5 3 2 3 3 6 7 7 8
9 10 10 10 10 13 15 16 17 11 9 9 10 9 9 8 9 8 8 8 9 10 12 9 8 7 7 8 10 9 8 5 4 5 5 4 3 2 3 5 7 7 8
10 10 9 10 11 12 14 15 14 7 8 9 10 9 9 10 12 12 9 8 8 7 10 12 11 10 10 11 10 8 9 9 5 4 3 4 4 3 2 2 5 7 8
10 9 10 9 10 11 13 14 12 6 7 7 7 8 12 12 13 14 10 9 9 7 7 8 8 8 7 9 13 11 11 10 6 5 5 5 5 4 3 1 1 3 5
Wind_Direction
214 214 230 234 231 228 224 224 226 227 226 224 224 226 227 229 232 229 229 227 220 212 212 210 206 205 202 200 199 201 201 203 202 201 201 200 199 197 196 196 195 194 193
184 191 232 248 246 238 232 229 229 233 234 230 230 228 226 230 234 233 230 228 227 218 214 214 213 211 209 207 205 204 204 205 205 204 204 204 203 202 200 200 200 199 198
152 150 253 271 260 257 251 246 243 239 240 234 231 228 224 225 233 234 233 227 226 220 215 215 216 215 214 213 211 208 207 207 207 207 206 207 206 205 205 204 204 202 202
142 157 235 260 260 260 258 257 248 244 249 242 233 235 229 224 229 235 234 229 224 223 221 219 217 217 218 220 217 213 211 210 209 209 209 209 209 208 208 208 208 207 206
150 158 244 249 252 253 261 269 254 236 245 249 244 241 234 232 231 237 234 228 221 219 217 222 221 220 222 224 222 217 214 212 211 211 212 211 211 211 211 211 211 210 209
173 174 224 250 245 251 269 273 265 251 242 241 253 254 240 236 231 232 234 229 219 218 218 221 222 227 226 224 223 221 219 216 214 213 214 214 213 212 212 213 213 214 212
201 196 223 235 230 233 250 263 267 266 257 233 241 267 262 243 235 232 226 223 220 218 216 218 216 219 224 225 224 222 220 219 217 215 215 215 215 214 212 213 215 216 215
243 226 218 225 229 231 255 262 254 262 263 223 205 238 275 279 249 236 220 219 221 217 215 214 210 211 216 218 222 222 221 220 219 218 217 216 215 215 214 214 215 216 216
267 254 234 228 225 212 228 240 235 226 253 263 220 209 227 254 288 264 231 224 215 210 212 207 208 209 211 212 214 219 219 220 220 221 220 218 216 214 214 215 216 216 217
279 270 249 237 227 218 219 229 215 208 217 246 252 230 223 221 259 299 290 238 218 212 208 209 207 204 208 207 210 213 215 216 218 220 219 218 216 213 213 215 218 219 219
290 285 263 244 232 225 221 219 216 216 207 216 227 237 239 237 227 244 284 294 264 230 207 201 199 197 200 200 202 208 208 209 209 212 214 216 216 214 214 216 220 221 221
292 296 288 257 244 233 226 221 218 217 219 216 216 216 213 217 227 218 247 265 259 257 225 199 194 192 190 189 195 195 195 196 197 202 206 211 215 217 216 218 221 224 225
284 285 293 269 258 245 238 228 223 225 223 222 219 215 219 217 216 216 225 256 265 271 265 225 201 184 184 175 181 181 183 183 186 192 199 206 214 218 218 219 222 225 227
260 269 272 265 260 258 250 233 229 231 228 230 231 220 216 217 211 212 206 219 266 280 274 258 223 174 165 163 167 162 162 170 173 177 187 199 212 220 222 223 223 224 225
265 268 266 264 261 258 254 240 233 234 228 230 232 228 223 221 207 206 207 199 212 238 248 253 32 113 139 144 154 148 145 157 160 165 175 189 206 217 221 223 224 225 225
270 276 272 266 263 257 250 245 242 237 228 230 228 228 229 225 214 202 204 205 204 212 233 231 209 156 146 143 145 139 140 143 147 154 160 171 186 198 209 216 219 219 220
273 270 268 267 264 260 253 245 242 239 232 233 230 225 230 221 212 208 202 202 208 208 224 236 183 134 121 133 128 124 126 125 131 140 144 149 158 169 186 198 206 212 215
273 268 267 267 266 265 254 245 248 249 235 234 232 225 228 224 216 210 203 201 205 204 209 215 193 168 151 152 140 137 132 126 122 126 126 126 126 132 148 167 185 198 208
272 271 267 263 263 263 259 251 243 242 237 234 229 222 222 214 216 211 208 206 205 208 203 198 198 187 162 150 135 130 124 117 121 121 111 105 104 102 103 113 137 165 184
270 267 263 259 258 258 258 254 248 243 240 237 230 223 218 209 209 206 208 209 203 201 201 195 192 184 167 152 143 144 141 133 133 123 109 102 96 88 81 82 96 116 137
279 268 266 265 261 261 260 253 246 248 241 240 236 228 223 219 214 206 205 199 196 196 197 198 193 181 174 164 167 159 157 143 126 135 121 99 83 70 61 59 72 90 111
276 272 267 265 265 270 269 263 251 245 237 234 236 233 231 230 226 217 213 200 190 189 195 197 196 191 189 177 167 165 159 160 168 162 133 116 88 77 52 50 65 85 100
277 274 270 264 262 261 260 259 256 244 233 231 230 229 236 232 219 216 218 212 204 199 190 185 190 195 184 178 170 173 177 170 165 161 138 126 101 82 55 58 71 88 101
279 276 274 269 265 266 261 255 252 246 238 232 228 221 219 226 222 209 209 207 203 205 199 190 192 198 190 178 177 176 168 145 112 142 137 131 126 97 67 53 64 86 101
285 280 276 272 268 269 263 256 247 233 232 233 230 222 215 219 221 208 196 198 203 212 209 200 197 202 199 183 170 160 161 162 155 163 151 129 132 114 86 53 58 84 101
282 284 282 277 270 268 266 256 239 223 227 231 228 223 220 216 216 204 194 191 202 208 190 189 199 211 205 193 182 178 174 173 157 161 165 134 139 136 123 88 64 81 99
Height
1532 1532 1532 1531 1531 1530 1530 1530 1530 1530 1530 1530 1532 1533 1534 1535 1537 1538 1540 1541 1543 1545 1546 1548 1551 1553 1554 1557 1559 1561 1563 1565 1567 1570 1572 1574 1576 1578 1580 1582 1584 1586 1587
1528 1528 1528 1528 1527 1526 1526 1525 1525 1525 1525 1525 1525 1526 1528 1529 1530 1532 1533 1535 1537 1539 1541 1542 1545 1548 1549 1551 1554 1557 1559 1562 1564 1566 1569 1571 1573 1576 1578 1580 1582 1584 1586
1525 1524 1524 1524 1523 1522 1521 1520 1520 1520 1519 1519 1518 1520 1521 1522 1523 1525 1527 1529 1531 1533 1534 1536 1539 1542 1544 1546 1548 1551 1554 1557 1560 1563 1565 1568 1571 1573 1575 1577 1580 1582 1584
1521 1521 1521 1520 1519 1518 1517 1516 1515 1514 1513 1512 1512 1513 1514 1515 1516 1518 1520 1522 1524 1526 1528 1530 1533 1535 1538 1540 1543 1546 1549 1552 1555 1558 1561 1564 1567 1569 1572 1574 1577 1579 1581
1517 1517 1516 1515 1514 1513 1512 1511 1510 1508 1507 1506 1506 1506 1507 1508 1509 1511 1513 1515 1517 1519 1522 1524 1527 1529 1532 1534 1537 1540 1543 1547 1550 1553 1557 1560 1563 1565 1568 1571 1573 1576 1578
1514 1514 1513 1512 1510 1509 1508 1506 1505 1504 1502 1501 1501 1500 1500 1501 1503 1504 1506 1508 1510 1512 1515 1518 1520 1523 1526 1528 1531 1535 1538 1541 1544 1548 1551 1554 1558 1561 1564 1567 1570 1572 1575
1512 1510 1509 1508 1507 1505 1504 1502 1501 1499 1498 1497 1496 1495 1495 1496 1496 1497 1499 1501 1503 1505 1508 1511 1514 1517 1520 1523 1526 1529 1532 1535 1538 1541 1545 1549 1552 1556 1559 1562 1565 1568 1571
1508 1507 1506 1504 1503 1501 1500 1498 1497 1495 1494 1493 1493 1492 1491 1491 1491 1491 1492 1494 1496 1499 1502 1505 1508 1511 1514 1517 1520 1523 1526 1529 1532 1535 1539 1543 1546 1550 1553 1557 1560 1563 1566
1504 1503 1502 1500 1499 1497 1496 1495 1494 1492 1491 1490 1489 1490 1489 1487 1486 1487 1487 1488 1491 1493 1496 1499 1502 1506 1509 1512 1515 1518 1520 1523 1527 1530 1533 1537 1541 1544 1547 1551 1554 1557 1560
1500 1498 1497 1496 1494 1493 1492 1491 1491 1489 1488 1487 1486 1486 1487 1486 1486 1484 1484 1484 1486 1489 1491 1494 1497 1500 1504 1507 1510 1513 1516 1519 1522 1525 1528 1531 1535 1538 1541 1545 1548 1551 1554
1494 1493 1492 1491 1490 1489 1488 1488 1487 1486 1485 1484 1483 1483 1483 1483 1483 1482 1481 1482 1483 1484 1487 1490 1493 1496 1499 1502 1505 1508 1511 1514 1517 1520 1523 1526 1529 1532 1535 1538 1542 1545 1548
1489 1488 1487 1486 1485 1484 1484 1483 1483 1482 1482 1481 1480 1480 1479 1479 1479 1479 1479 1479 1480 1482 1484 1486 1489 1492 1495 1498 1501 1504 1507 1510 1513 1516 1518 1521 1524 1527 1530 1533 1536 1539 1542
1484 1483 1482 1481 1480 1479 1479 1479 1478 1478 1478 1477 1476 1476 1475 1476 1476 1476 1477 1477 1478 1479 1481 1483 1485 1489 1491 1495 1498 1501 1504 1506 1509 1511 1514 1516 1519 1522 1524 1527 1530 1533 1536
1479 1478 1477 1476 1475 1474 1474 1473 1473 1473 1473 1473 1472 1472 1471 1471 1472 1473 1474 1475 1475 1476 1477 1479 1482 1485 1488 1491 1494 1497 1500 1502 1505 1507 1509 1512 1514 1517 1519 1522 1525 1527 1531
1474 1472 1471 1470 1469 1468 1468 1468 1467 1467 1467 1467 1467 1467 1467 1467 1468 1468 1470 1472 1474 1473 1474 1476 1479 1481 1484 1487 1491 1493 1496 1499 1501 1503 1505 1507 1509 1512 1514 1516 1519 1522 1525
1468 1466 1465 1463 1462 1462 1461 1461 1461 1461 1461 1461 1462 1462 1462 1463 1463 1464 1465 1467 1469 1471 1471 1473 1476 1478 1481 1484 1487 1490 1493 1496 1498 1499 1501 1503 1505 1507 1510 1512 1514 1516 1519
1462 1460 1458 1457 1456 1455 1454 1454 1454 1454 1454 1455 1456 1456 1457 1458 1458 1459 1460 1461 1464 1466 1468 1470 1472 1475 1477 1480 1484 1487 1490 1492 1495 1496 1498 1500 1502 1504 1506 1507 1510 1512 1515
1456 1454 1452 1450 1449 1448 1447 1446 1446 1446 1447 1447 1449 1450 1451 1453 1453 1454 1455 1456 1458 1461 1463 1465 1468 1471 1474 1477 1480 1484 1487 1489 1492 1494 1495 1497 1499 1500 1502 1504 1506 1508 1511
1450 1448 1445 1443 1442 1441 1440 1439 1438 1438 1439 1439 1441 1442 1444 1446 1447 1449 1450 1451 1453 1455 1458 1460 1463 1466 1470 1473 1476 1480 1484 1486 1489 1491 1493 1494 1496 1497 1499 1500 1502 1504 1507
1443 1440 1438 1436 1435 1433 1432 1431 1431 1430 1431 1431 1433 1435 1437 1439 1441 1443 1445 1447 1448 1450 1452 1455 1458 1461 1465 1468 1472 1476 1480 1483 1486 1488 1490 1492 1493 1494 1496 1498 1499 1501 1503
1436 1433 1431 1429 1427 1425 1424 1423 1422 1422 1422 1423 1424 1426 1429 1432 1434 1437 1439 1441 1444 1445 1447 1449 1452 1456 1459 1463 1467 1472 1476 1479 1482 1485 1488 1489 1491 1492 1494 1495 1497 1499 1500
1429 1426 1424 1421 1419 1417 1416 1415 1414 1414 1415 1415 1417 1419 1421 1424 1427 1430 1433 1436 1439 1441 1443 1444 1447 1450 1453 1458 1462 1467 1471 1475 1478 1482 1485 1487 1489 1490 1492 1493 1495 1496 1498
1423 1420 1417 1414 1411 1409 1408 1406 1406 1406 1406 1407 1409 1411 1414 1416 1420 1423 1427 1430 1433 1436 1438 1441 1442 1445 1449 1452 1457 1462 1466 1470 1473 1477 1481 1484 1486 1488 1490 1492 1493 1495 1496
1416 1413 1410 1407 1404 1401 1400 1398 1398 1398 1398 1399 1401 1403 1406 1409 1413 1417 1420 1424 1427 1430 1433 1436 1439 1442 1445 1449 1452 1457 1461 1467 1471 1474 1478 1481 1483 1486 1488 1490 1492 1493 1495
1410 1407 1403 1400 1397 1394 1393 1391 1391 1390 1391 1392 1394 1396 1399 1402 1406 1410 1414 1417 1421 1425 1429 1432 1435 1438 1440 1444 1448 1452 1456 1462 1465 1470 1474 1477 1480 1483 1486 1489 1491 1492 1494
1405 1401 1397 1394 1391 1388 1386 1385 1384 1384 1384 1385 1387 1390 1393 1395 1399 1404 1408 1412 1416 1420 1424 1427 1430 1433 1436 1439 1443 1447 1451 1456 1460 1465 1469 1473 1476 1480 1484 1487 1489 1491 1493